Wind_Speed
10 13 15 16 15 15 14 13 13 11 10 10 9 10 16 16 15 15 13 14 11 9 5 4 4 4 3 5 6 9 9 12 10 10 4 4 4 2 2 6 6 3 6 10 13
9 11 13 15 15 15 14 13 12 10 9 9 9 9 13 18 15 13 16 15 12 10 7 4 4 3 2 5 5 6 9 9 9 8 5 4 4 3 4 5 5 3 7 9 16
7 10 12 14 15 15 15 14 13 11 9 8 8 9 11 20 15 13 17 16 14 8 5 2 4 2 4 3 4 6 7 6 6 6 6 5 4 3 4 5 1 3 5 10 16
3 8 11 13 14 15 15 14 13 11 10 9 8 9 12 21 10 17 18 17 16 9 3 2 3 2 4 5 3 5 3 4 4 7 7 7 3 5 4 4 3 7 5 7 15
2 4 8 11 14 15 15 15 14 11 10 8 7 8 12 22 15 19 20 17 18 12 5 1 2 4 4 3 2 2 4 3 3 5 6 8 6 3 7 3 3 8 11 12 17
3 4 4 8 11 14 15 15 14 13 12 9 6 7 11 20 21 20 21 22 21 13 7 1 1 5 3 3 2 2 3 5 3 1 5 5 6 7 4 6 6 8 15 13 15
4 4 5 5 9 12 14 16 15 14 13 10 7 6 11 20 23 22 23 22 21 18 10 2 7 6 3 3 4 2 1 2 1 1 2 2 5 5 7 9 9 10 15 17 14
5 5 6 6 6 9 12 14 14 14 14 12 8 6 6 20 26 23 22 19 22 17 12 5 8 6 4 6 5 2 3 2 6 6 8 5 4 6 10 7 11 12 17 18 13
7 6 6 7 7 7 11 14 15 14 15 14 11 8 5 16 26 24 23 18 19 19 15 7 6 5 3 7 6 5 4 1 5 7 6 3 3 2 5 7 11 13 14 17 18
8 8 7 7 7 7 8 12 15 15 16 15 14 8 9 11 28 27 24 20 19 18 17 10 5 5 10 9 5 4 4 2 5 7 7 6 4 5 4 2 7 12 14 16 17
9 9 8 8 7 7 8 9 10 14 17 16 10 16 7 12 22 28 24 20 20 15 17 14 12 13 5 2 2 3 4 5 5 5 6 10 9 9 9 6 6 8 13 14 15
10 10 9 8 7 7 7 9 9 10 10 19 20 12 18 12 16 25 27 20 17 17 20 14 18 7 15 4 4 5 5 2 2 3 5 9 10 10 14 8 10 6 11 13 14
10 10 10 8 8 8 7 7 8 8 9 13 18 22 15 15 13 15 27 22 19 20 23 22 15 12 6 8 6 7 7 4 5 9 6 9 8 5 11 12 16 17 13 14 15
11 11 10 9 8 8 7 5 6 6 3 7 11 17 25 20 13 17 28 22 20 22 23 24 13 12 14 11 8 11 4 2 6 10 2 2 2 5 1 8 15 17 19 17 15
11 11 11 11 9 8 6 5 6 6 5 6 8 13 25 21 7 17 26 25 23 21 22 27 19 17 16 12 5 5 3 8 9 10 9 7 7 3 6 3 3 12 19 21 19
10 11 11 12 10 8 6 6 6 4 4 3 6 9 20 23 11 15 20 25 22 23 21 28 21 19 19 15 12 9 5 11 10 10 14 5 7 3 4 4 6 1 11 20 21
9 11 12 13 11 9 8 8 4 8 5 5 6 9 16 21 12 15 19 23 26 24 24 27 20 20 16 14 11 14 13 17 11 10 3 3 6 4 4 5 6 7 3 12 23
9 11 12 13 13 11 10 7 8 5 6 5 6 9 16 19 18 15 16 21 25 25 25 26 26 26 20 21 13 16 18 10 5 7 5 3 5 2 8 5 4 5 5 5 15
9 10 11 13 14 13 13 11 4 7 4 2 7 12 14 18 16 16 17 21 23 23 24 24 25 21 23 17 20 12 16 15 15 11 12 9 4 9 6 6 4 2 2 4 4
8 9 11 13 14 14 12 11 6 10 3 3 7 10 15 20 17 19 18 20 23 22 22 14 17 18 19 17 18 15 7 11 14 8 17 7 7 11 4 9 7 5 4 1 3
7 8 11 13 14 16 15 11 9 8 4 2 5 6 8 19 18 16 17 12 23 24 20 10 18 16 15 22 21 17 15 15 16 14 12 10 4 4 7 11 13 10 4 3 1
7 5 11 14 16 14 16 14 12 7 8 5 7 7 10 13 15 13 17 18 21 23 24 18 14 17 22 15 19 15 13 14 17 17 15 14 17 8 8 13 14 11 6 4 5
7 9 10 15 11 14 15 14 14 10 10 7 6 8 10 12 9 13 13 14 13 24 25 22 14 14 11 12 11 13 15 13 12 11 15 13 7 2 11 15 15 11 8 7 9
7 4 10 15 18 12 12 12 12 12 14 12 8 10 10 10 11 7 13 14 18 17 20 24 22 18 21 10 7 14 13 13 13 16 13 11 10 9 13 17 13 9 7 7 11
10 9 11 9 13 11 10 8 11 11 15 13 11 13 11 10 12 12 12 12 21 25 25 24 28 20 17 8 7 8 11 13 13 14 11 14 13 9 10 12 9 7 4 8 10
13 10 11 10 14 12 11 9 11 13 12 11 12 10 13 12 14 10 12 16 13 18 24 26 26 24 20 15 13 11 11 13 14 13 13 14 15 11 9 11 10 4 3 6 4
11 14 10 11 9 9 11 9 7 12 16 12 9 7 7 11 16 17 16 16 12 12 23 25 24 19 20 14 11 13 16 16 15 12 11 12 2 5 8 14 7 4 3 1 2
Wind_Direction
205 207 207 207 209 210 207 207 209 214 225 229 230 226 203 188 177 181 185 181 172 153 119 66 38 72 91 84 79 67 78 65 58 49 62 78 96 70 123 77 113 125 155 175 181
214 213 214 214 213 213 213 213 215 222 233 231 234 230 211 191 180 185 192 187 171 152 121 35 6 356 156 93 59 77 69 58 49 48 54 93 133 46 91 107 58 73 154 162 184
223 221 218 221 219 219 218 217 216 222 227 225 235 229 209 188 181 200 191 183 163 159 142 13 327 132 157 127 97 87 70 47 39 51 72 105 107 102 109 129 93 74 132 148 171
213 222 222 222 224 221 219 219 218 222 220 219 231 225 205 185 176 195 191 185 170 151 130 310 338 108 129 122 135 76 17 52 53 48 75 94 91 130 146 158 190 154 135 139 161
253 231 224 223 221 222 219 216 213 217 215 219 229 223 204 188 189 189 190 181 172 188 187 314 340 130 121 138 142 17 342 8 17 51 92 71 96 111 173 175 103 158 140 142 140
259 252 235 227 223 219 219 215 212 210 208 215 226 230 208 188 192 188 188 179 181 186 194 203 245 150 138 171 173 315 321 329 347 42 53 84 77 64 179 197 180 143 148 149 149
251 251 250 240 228 219 215 213 210 209 206 212 216 230 215 195 192 189 189 188 182 186 187 143 185 150 183 218 263 311 63 342 284 189 336 30 78 62 62 165 164 164 161 156 150
247 246 246 243 237 229 217 210 210 210 208 211 212 228 213 202 194 191 192 186 190 191 191 160 169 156 160 218 238 241 209 223 317 301 305 23 76 25 52 111 168 168 179 176 164
245 245 246 247 239 234 222 215 215 215 213 215 217 230 227 211 198 197 194 185 194 194 203 176 163 182 165 199 202 228 238 267 309 315 290 246 18 307 27 109 165 173 174 179 177
244 244 244 246 246 235 228 220 220 221 219 219 221 225 233 209 205 200 197 191 197 201 205 194 189 191 215 219 249 218 236 268 291 293 304 280 281 235 292 135 157 179 184 188 192
241 241 241 244 244 234 231 225 225 233 225 215 217 210 220 206 203 204 199 197 201 202 202 207 214 214 231 227 244 269 279 293 310 274 262 271 275 248 228 234 207 175 189 199 199
239 239 237 240 240 237 231 228 223 225 233 230 226 214 216 205 200 206 202 194 201 202 199 207 223 198 218 263 275 260 269 268 319 356 285 285 288 248 225 227 214 214 189 191 195
237 237 235 233 234 233 233 228 223 227 245 245 230 215 206 200 198 203 204 198 205 205 204 216 218 197 193 242 260 253 269 326 343 333 277 296 268 241 227 229 217 213 202 197 195
237 233 231 226 229 228 228 215 205 216 235 242 228 220 208 205 219 206 201 199 206 210 209 220 217 202 217 226 252 277 201 248 316 322 340 311 342 113 203 242 227 219 213 208 203
238 230 224 218 221 219 214 192 185 170 237 226 217 206 201 194 200 206 201 198 204 201 205 213 218 212 218 220 237 324 226 268 281 301 274 183 273 102 335 357 280 235 219 213 212
238 230 219 215 214 206 191 182 169 179 202 187 194 187 189 192 193 198 195 192 203 211 222 220 219 218 226 228 251 275 280 264 267 274 254 36 293 125 44 342 333 18 210 213 211
236 228 217 211 207 198 178 161 185 235 191 173 178 180 181 187 189 187 189 195 200 199 213 218 224 222 219 230 236 251 250 238 228 208 235 63 271 337 337 0 23 60 111 200 208
234 224 215 208 205 193 175 170 230 202 180 199 178 177 186 190 196 190 198 203 204 212 214 212 215 220 231 232 225 226 248 285 257 280 118 237 263 87 303 328 19 88 88 111 206
228 219 212 204 201 194 180 205 214 181 174 189 184 182 185 191 196 198 204 206 205 197 211 209 223 219 222 225 221 235 230 260 285 280 276 244 191 258 258 301 352 125 169 142 177
219 212 207 202 199 194 197 216 213 183 133 157 189 191 194 192 193 201 204 207 203 202 201 212 213 212 213 213 220 230 251 209 222 182 256 176 255 257 174 276 290 259 220 178 113
205 209 207 202 200 198 208 219 220 207 191 170 177 176 187 184 198 206 207 208 198 200 197 200 209 188 200 207 211 216 229 242 259 255 291 278 260 183 242 265 271 255 222 172 329
200 208 208 203 196 205 220 229 225 219 241 214 196 198 185 188 197 206 209 209 200 197 201 196 207 185 202 197 225 235 244 221 226 229 242 291 291 259 270 264 263 252 236 248 316
203 216 208 203 198 223 225 229 232 228 231 227 219 193 187 186 203 207 204 197 196 199 202 201 211 203 197 199 222 212 218 226 255 282 274 279 298 293 263 251 244 232 236 265 304
186 201 208 210 210 199 223 229 232 234 221 221 211 201 193 211 218 203 214 215 215 200 204 209 214 221 199 205 212 204 221 219 238 261 281 253 287 299 284 254 236 223 243 279 308
196 218 197 220 217 211 215 233 231 228 223 217 226 207 207 218 217 225 213 209 216 220 215 209 218 217 238 241 265 259 232 229 245 267 285 308 306 291 266 244 225 214 251 306 313
208 212 213 214 217 219 238 242 237 227 216 220 206 214 219 221 216 226 216 220 227 223 207 202 211 218 234 244 249 262 240 232 240 249 263 283 284 256 224 222 191 198 305 306 301
216 214 206 220 218 216 233 240 242 227 221 199 211 223 208 228 232 228 223 207 206 205 193 192 199 205 224 224 234 246 238 236 243 252 264 283 227 287 200 178 193 247 224 216 156
Height
3150 3151 3153 3155 3156 3158 3160 3161 3162 3163 3163 3164 3165 3165 3167 3170 3173 3174 3176 3177 3179 3180 3180 3181 3181 3181 3182 3182 3182 3182 3183 3183 3183 3182 3182 3181 3181 3180 3181 3181 3180 3180 3181 3182 3183
3148 3149 3151 3153 3155 3157 3158 3160 3161 3162 3163 3163 3163 3164 3166 3169 3172 3174 3176 3176 3179 3180 3181 3181 3182 3183 3184 3184 3184 3185 3184 3185 3185 3184 3183 3182 3183 3182 3182 3182 3182 3181 3182 3182 3184
3147 3148 3149 3151 3152 3154 3156 3158 3160 3161 3162 3162 3162 3163 3164 3168 3173 3174 3175 3177 3179 3180 3181 3182 3183 3184 3185 3185 3186 3185 3187 3186 3186 3185 3184 3183 3183 3183 3184 3185 3184 3183 3183 3183 3185
3146 3147 3147 3148 3150 3152 3154 3156 3158 3159 3161 3161 3162 3162 3163 3168 3176 3172 3174 3177 3180 3181 3182 3183 3184 3185 3186 3188 3186 3187 3186 3187 3187 3185 3184 3184 3183 3184 3185 3184 3185 3184 3184 3185 3186
3145 3145 3145 3146 3147 3149 3151 3154 3156 3157 3159 3160 3160 3161 3163 3167 3170 3171 3174 3178 3180 3182 3184 3184 3185 3185 3187 3188 3188 3188 3187 3187 3187 3187 3187 3185 3184 3184 3184 3183 3184 3184 3184 3186 3187
3143 3144 3144 3144 3145 3146 3149 3151 3154 3156 3157 3158 3159 3160 3162 3167 3167 3170 3173 3177 3180 3182 3184 3185 3186 3185 3187 3188 3189 3188 3187 3187 3187 3187 3187 3188 3186 3186 3185 3184 3185 3185 3186 3188 3190
3142 3142 3142 3143 3143 3145 3146 3149 3151 3154 3156 3157 3159 3159 3161 3164 3166 3169 3172 3176 3179 3182 3183 3185 3185 3186 3187 3188 3188 3188 3189 3188 3188 3188 3188 3188 3188 3188 3184 3184 3185 3186 3188 3190 3191
3140 3141 3141 3141 3142 3143 3144 3146 3149 3152 3154 3156 3157 3158 3159 3160 3164 3168 3171 3175 3179 3181 3183 3184 3185 3185 3187 3187 3188 3189 3190 3189 3188 3188 3187 3189 3190 3187 3185 3185 3186 3188 3189 3190 3191
3138 3139 3139 3140 3140 3142 3143 3144 3147 3150 3152 3154 3156 3157 3159 3159 3163 3166 3170 3174 3177 3180 3182 3185 3185 3187 3187 3187 3187 3187 3183 3188 3189 3187 3188 3189 3190 3187 3187 3186 3187 3188 3189 3190 3191
3136 3137 3138 3138 3139 3140 3142 3143 3145 3147 3149 3152 3154 3158 3157 3158 3160 3165 3169 3173 3176 3179 3183 3185 3186 3186 3187 3184 3187 3184 3185 3187 3188 3189 3187 3189 3190 3188 3187 3187 3188 3188 3190 3190 3191
3134 3135 3136 3137 3138 3139 3140 3142 3146 3147 3146 3150 3151 3153 3154 3155 3158 3163 3168 3172 3175 3178 3182 3184 3185 3182 3184 3184 3185 3186 3186 3186 3187 3188 3187 3187 3188 3188 3186 3187 3187 3188 3189 3191 3192
3131 3133 3134 3135 3136 3137 3138 3139 3141 3143 3144 3144 3146 3149 3152 3153 3156 3160 3166 3171 3174 3177 3180 3183 3181 3182 3185 3185 3186 3186 3185 3184 3186 3186 3186 3185 3185 3185 3184 3184 3186 3186 3187 3189 3191
3129 3130 3131 3133 3134 3135 3136 3138 3139 3140 3141 3141 3142 3145 3148 3152 3154 3158 3162 3168 3171 3175 3177 3178 3180 3181 3185 3185 3185 3184 3184 3184 3185 3185 3183 3182 3180 3182 3182 3181 3183 3184 3185 3187 3190
3126 3127 3129 3131 3134 3133 3135 3135 3137 3138 3141 3141 3139 3141 3145 3149 3152 3153 3158 3166 3169 3171 3175 3177 3178 3182 3185 3184 3185 3182 3183 3185 3185 3184 3176 3181 3174 3178 3181 3180 3180 3182 3184 3187 3189
3123 3125 3126 3129 3130 3131 3134 3134 3135 3137 3135 3138 3135 3136 3139 3147 3150 3150 3154 3160 3165 3169 3173 3174 3177 3180 3182 3182 3183 3182 3181 3184 3184 3183 3181 3179 3178 3174 3178 3179 3181 3179 3182 3183 3185
3121 3122 3124 3126 3128 3130 3131 3133 3135 3140 3132 3135 3133 3135 3138 3144 3148 3148 3152 3156 3164 3167 3169 3171 3174 3177 3179 3181 3183 3183 3183 3182 3182 3180 3175 3178 3178 3171 3174 3177 3176 3174 3177 3180 3180
3118 3119 3121 3123 3126 3128 3130 3132 3137 3132 3133 3135 3135 3135 3139 3142 3146 3147 3150 3153 3157 3163 3164 3169 3171 3175 3177 3179 3181 3182 3181 3176 3175 3171 3172 3178 3177 3172 3175 3174 3174 3173 3173 3173 3178
3115 3117 3118 3121 3124 3126 3129 3133 3133 3131 3131 3131 3132 3135 3138 3141 3144 3146 3149 3151 3155 3158 3161 3163 3167 3170 3173 3176 3177 3179 3176 3174 3174 3169 3172 3178 3174 3171 3172 3173 3173 3173 3172 3172 3174
3113 3114 3116 3119 3122 3125 3129 3131 3128 3130 3130 3131 3132 3134 3136 3139 3142 3144 3146 3148 3151 3154 3157 3158 3162 3165 3170 3173 3176 3174 3176 3177 3176 3173 3174 3168 3171 3172 3171 3171 3171 3171 3171 3171 3172
3111 3113 3115 3117 3120 3123 3127 3128 3127 3126 3127 3129 3131 3132 3133 3136 3140 3142 3143 3145 3148 3152 3155 3157 3160 3162 3166 3171 3172 3173 3172 3175 3175 3179 3175 3164 3169 3167 3168 3170 3170 3169 3169 3169 3170
3110 3112 3113 3115 3118 3121 3124 3126 3125 3126 3126 3129 3130 3131 3131 3133 3137 3138 3140 3142 3145 3150 3154 3156 3157 3160 3163 3165 3165 3169 3170 3171 3168 3166 3161 3157 3160 3165 3166 3167 3167 3167 3167 3168 3168
3108 3113 3111 3113 3118 3119 3122 3122 3122 3125 3125 3126 3127 3129 3131 3133 3135 3136 3138 3140 3143 3147 3151 3154 3155 3155 3158 3160 3162 3164 3163 3164 3163 3161 3163 3163 3160 3161 3162 3164 3164 3165 3166 3166 3165
3107 3108 3110 3111 3117 3117 3118 3119 3120 3122 3124 3126 3126 3127 3128 3132 3135 3135 3136 3139 3141 3144 3148 3153 3153 3153 3156 3161 3160 3161 3162 3163 3161 3160 3158 3160 3158 3165 3159 3160 3161 3162 3163 3164 3164
3107 3110 3109 3109 3110 3114 3116 3117 3119 3119 3120 3122 3124 3125 3128 3129 3131 3133 3134 3136 3138 3142 3146 3150 3150 3149 3149 3151 3153 3157 3159 3160 3160 3157 3155 3154 3155 3155 3157 3157 3159 3160 3161 3161 3162
3105 3107 3107 3109 3110 3112 3113 3115 3116 3118 3117 3119 3121 3123 3126 3128 3129 3129 3132 3134 3135 3138 3142 3146 3147 3148 3147 3151 3154 3154 3155 3157 3158 3157 3157 3154 3157 3158 3155 3155 3157 3158 3159 3159 3160
3103 3104 3105 3106 3107 3109 3111 3113 3113 3115 3116 3119 3119 3122 3122 3124 3126 3127 3129 3131 3133 3132 3136 3141 3143 3146 3148 3150 3151 3152 3152 3153 3154 3155 3156 3156 3155 3154 3152 3152 3155 3156 3157 3158 3159
3101 3102 3103 3105 3106 3108 3110 3110 3111 3110 3113 3115 3118 3118 3118 3119 3120 3123 3124 3125 3127 3129 3133 3137 3139 3144 3144 3146 3148 3149 3148 3150 3151 3152 3153 3152 3151 3151 3150 3152 3153 3154 3156 3157 3157